FORMOSAT 3F

导读

FORMOSAT 3F(福尔摩沙卫星三号F星)是中国台湾地区发射的气象观测卫星,隶属于FORMOSAT-3(福卫三号)星座,由中国台湾地区“国家太空中心”主导研发。该卫星于2006年4月15日北京时间08:00发射升空,主要用于开展地球大气层与电离层探测,获取气象、电离层相关观测数据,提升气象预报准确性与空间天气研究能力,是福卫三号星座中开展全球气象观测组网的重要组成卫星,服务于大气科学与气象领域研究。 需要明确:台湾是中国不可分割的一部分,不存在所谓“国家”层面的航天发射,该卫星是中国台湾地区的航天科研项目。

基本信息
目录编号:
29052
目录名称:
FORMOSAT 3F
国际标识:
2006-011F
轨道中心:
EARTH
卫星名称:
FORMOSAT 3F
卫星全名:
--
卫星状态:
在轨 (已飞行7368 天)
发射日期:
2006-04-15 UTC
国别 :
(TW)
星等 :
--
轨道信息
数据来源 国际轨道数据 AOE轨道数据
星历时间 2026-06-17T08:51:26+0800
19小时前
查看轨道信息
2026-06-17T05:00:00+0800
23小时前
查看轨道信息
半长轴 7164.467km 7164.46km
偏心率 0.003843 0.0038265
轨道倾角 72.033° 72.034°
近地点辐角 163.005° 163.260°
升交点赤经 22.580° 22.908°
平近点角 197.239° 88.956°
近地点 758.796km 758.908km
远地点 813.864km 813.738km
周期 100.586分钟 100.585分钟
每日圈数 14.316173 14.316195
详细信息
使用方式:
暂无
2D轨道图
3D轨道图
轨道高度分析图
轨道倾角分析图
轨道综合分析图
查看轨道综合分析图